Hourly Data Report for October 24, 2015

All times are specified in Local Standard Time (LST). Add 1 hour to adjust for Daylight Saving Time where and when it is observed.

BAKER LAKE A
NUNAVUT

64°17'56.000" N
96°04'40.000" W
18.60 m
2300503
71926
YBK

Download Data

Hourly Data (October 2015)
Hourly Data Report for October 24, 2015
Temp Definition
°C
Dew Point Temp Definition
°C
Rel Hum Definition
%
Wind Dir Definition
10's deg

Wind Spd Definition
km/h
Visibility Definition
km
Stn Press Definition
kPa
Hmdx Definition


Wind Chill Definition


Weather Definition


TIME
00:00 Legend Double Dagger -14.0 -16.4 82 34 59 1.2 100.85   -28 Blowing Snow
01:00 Legend Double Dagger -15.2 -17.8 81 34 59 1.6 100.94   -30 Blowing Snow
02:00 Legend Double Dagger -16.5 -19.2 80 34 56 3.2 101.04   -31 Blowing Snow
03:00 Legend Double Dagger -17.2 -19.9 80 34 55 6.4 101.10   -32 Blowing Snow
04:00 Legend Double Dagger -17.1 -19.8 80 34 49 8.1 101.20   -31 Blowing Snow
05:00 Legend Double Dagger -17.2 -20.2 78 33 50 9.7 101.27   -32 Blowing Snow
06:00 Legend Double Dagger -16.9 -20.0 77 33 39 12.9 101.36   -30 Blowing Snow
07:00 Legend Double Dagger -15.9 -18.9 78 33 37 16.1 101.42   -28 Blowing Snow
08:00 Legend Double Dagger -14.7 -17.9 77 32 34 32.2 101.40   -26 Blowing Snow
09:00 Legend Double Dagger -14.2 -17.2 78 31 34 32.2 101.39   -26 Blowing Snow
10:00 Legend Double Dagger -13.8 -16.9 78 30 30 24.1 101.42   -24 Snow,Blowing Snow
11:00 Legend Double Dagger -13.9 -17.1 77 31 41 24.1 101.39   -26 Blowing Snow
12:00 Legend Double Dagger -14.1 -17.3 77 31 43 24.1 101.37   -27 Blowing Snow
13:00 Legend Double Dagger -14.3 -17.7 76 30 36 32.2 101.34   -26 Blowing Snow
14:00 Legend Double Dagger -14.9 -18.2 76 29 33 32.2 101.37   -26 Blowing Snow
15:00 Legend Double Dagger -14.4 -17.4 78 29 37 24.1 101.27   -26 Blowing Snow
16:00 Legend Double Dagger -13.6 -16.5 79 30 38 12.9 101.25   -25 Snow,Blowing Snow
17:00 Legend Double Dagger -13.6 -16.8 77 30 31 24.1 101.24   -24 Snow,Blowing Snow
18:00 Legend Double Dagger -13.3 -16.1 80 31 36 24.1 101.20   -25 Snow,Blowing Snow
19:00 Legend Double Dagger -12.9 -15.7 80 31 41 24.1 101.15   -25 Snow,Blowing Snow
20:00 Legend Double Dagger -12.6 -15.5 79 30 45 24.1 101.14   -25 Snow,Blowing Snow
21:00 Legend Double Dagger -12.8 -15.6 80 30 40 16.1 101.13   -25 Snow,Blowing Snow
22:00 Legend Double Dagger -13.3 -16.1 80 31 40 24.1 101.12   -25 Blowing Snow
23:00 Legend Double Dagger -14.2 -16.9 80 31 28 24.1 101.18   -25 Blowing Snow

Notes on Data Quality.

Legend

  • E = Estimated
  • M = Missing
  • NA = Not Available
  • ‡ = Partner data that is not subject to review by the National Climate Archives
Date modified: